Terminal Aerodrome Forecast
Issued by NWS

Home | Current Version | Previous Version | Text Only | Print | Product List | Glossary On
Versions: 1 2 3 4 5 6 7 8 9 10 11 12 13 14 15 16 17 18
000
FTUS46 KSGX 231100
TAFCRQ
TAF
KCRQ 231120Z 2312/2412 VRB03KT P6SM FEW010
     FM232100 27010KT P6SM SKC
     FM240200 VRB05KT P6SM FEW010
     FM241000 VRB03KT P6SM BKN007=

USA.gov is the U.S. government's official web portal to all federal, state and local government web resources and services.